UPSat (42716 NORAD) Tracking and Keplerian Element Data

This shows tracking and keplerian element data for the satellite.

Feedback or suggestion? Click here.




ElementValue
Catalog42716
NameUPSat
Epoch Orbit6576
Epoch Day193.46481673
Epoch Year2018
RAAN220.2055
Inclination51.6297
Eccentricity0.0004627
Argument of Perigee1.6486
Mean Anonmoly358.4529
Mean Motion15.78048965
Decay Rate0.00040831
L11 42716U 98067LX 18193.46481673 .00040831 00000-0 23742-3 0 9998
L22 42716 051.6297 220.2055 0004627 001.6486 358.4529 15.78048965065765

Live tracking and technical data element details for UPSat (NORAD 42716). UPSat can be tracked NOW for your location showing map with azimuth and elevation plus other details from your city location.

Track the satellite on the map from your city or location and see movement details for azimuth, elevation, latitude, longitude, range, height, and movement on the map or in text.







IsCatalogInMostPopularTable: catalog: 42716, numindb: 95
Update: records affected: 1



GetName: 42716 UPSat

Hit Count: updated at: Sun, 15 Jul 2018 23:02:14 GMT